Location: Bauen
(46.9356°N, 8.5784°E)
Time: 18:23:04
(UTC+00:00)

CZ-4C R/B - Pass Details

Date: 18 February 2020
Orbit: 642 x 1360 km, 63.4° (Epoch: 28 March)

Event Time Altitude Azimuth Distance (km) Brightness Sun altitude
Exits shadow 04:02:09 34° 329° (NNW) 1,395 3.1 -25.2°
Drops below altitude 10° 04:07:47 10° 32° (NNE) 2,745 5.4 -24.2°
Sets 04:10:55 0° 41° (NE) 3,827 6.3 -23.7°
